Retour au catalogue

STARLINK-34657

ActifCommunicationsVLEO
NORAD 64775·PAYLOAD·🇺🇸 United States

Lancé Jul 8, 2025 depuis Cape Canaveral Space Force Station

Loading…

Prochains Passages (prochaines 24 heures)

TLE

FraisSource: CelesTrak SupGP

Époque: Sep 14, 2026, 20:54 UTC

1 64775C 25147W   26257.87131944 -.00016323  00000+0 -48240-3 0  2571
2 64775  53.1576  80.0693 0001270  88.8638 213.6261 15.34390138    14

Suivez STARLINK-34657 en temps réel avec AllMySat

Download on the App Store